Lapse_Rate
6.5 6.6 6.6 6.5 6.5 6.6 6.7 6.8 6.8 6.8 6.8 6.9 7.0 7.0 7.1 7.1 7.0 7.0 7.0 7.0 7.0 6.9 6.9 7.0 7.0 7.0 7.0 7.1 7.2 7.0 6.9 7.1 7.1 6.8 7.0 7.2 7.1 7.2 7.1 7.0 6.9 6.8 6.6 6.8 6.8
6.6 6.5 6.6 6.6 6.6 6.6 6.6 6.7 6.7 6.7 6.7 6.8 6.9 7.0 7.1 7.1 7.2 7.3 7.0 7.0 7.0 6.9 6.9 6.8 6.9 7.0 7.0 7.0 7.0 7.1 6.9 7.1 7.4 7.2 7.1 7.1 7.0 6.8 7.0 7.0 7.3 7.0 6.7 6.6 6.8
6.6 6.6 6.6 6.6 6.7 6.7 6.7 6.7 6.7 6.6 6.6 6.7 6.8 6.9 7.0 7.0 7.2 7.4 7.3 7.2 7.2 7.1 7.0 6.9 7.0 6.9 6.9 7.0 7.0 7.2 7.3 7.3 7.4 7.5 7.5 7.4 7.4 7.4 7.2 7.2 7.1 7.0 6.9 7.0 7.0
6.6 6.6 6.6 6.7 6.7 6.7 6.7 6.7 6.8 6.8 6.8 6.7 6.7 6.9 6.9 7.0 7.1 7.3 7.3 7.3 7.3 7.3 7.1 7.0 7.0 6.9 6.9 6.9 6.9 7.0 7.3 7.3 7.4 7.4 7.4 7.5 7.5 7.6 7.7 7.3 7.2 7.1 6.9 7.4 7.2
6.5 6.5 6.6 6.6 6.7 6.8 6.8 6.9 6.8 6.9 6.8 6.9 6.9 6.9 6.9 7.1 7.3 7.1 7.3 7.4 7.4 7.3 7.2 6.9 6.8 6.8 6.7 6.8 6.9 6.9 7.1 7.2 7.2 7.3 7.3 7.3 7.5 7.5 8.0 7.5 7.3 7.4 7.1 7.1 7.1
6.4 6.5 6.5 6.6 6.7 6.7 6.7 6.8 6.9 6.9 6.9 6.9 6.9 7.0 6.9 7.2 7.3 7.4 7.3 7.3 7.4 7.3 7.2 7.1 7.0 6.8 6.5 6.6 6.7 6.9 6.8 6.9 7.1 7.1 7.1 7.1 7.1 7.5 7.7 7.6 7.5 7.4 7.3 7.2 7.2
6.4 6.4 6.4 6.4 6.5 6.6 6.6 6.7 6.8 6.8 6.9 6.9 6.9 6.9 7.0 7.3 7.2 7.4 7.4 7.4 7.4 7.3 7.2 7.2 7.0 6.8 6.9 6.7 6.9 7.0 6.9 6.7 7.3 7.2 7.1 7.0 6.9 7.8 7.3 7.5 7.3 7.3 7.3 7.3 7.2
6.4 6.5 6.5 6.5 6.4 6.5 6.5 6.6 6.7 6.7 6.8 6.9 6.8 6.7 7.0 7.5 7.4 7.5 7.5 7.5 7.5 7.4 7.4 7.4 7.3 7.1 7.1 7.0 6.7 6.9 6.6 6.9 6.9 6.9 7.3 7.0 7.3 6.7 7.6 7.5 7.2 7.4 7.5 7.5 7.4
6.4 6.5 6.6 6.6 6.6 6.7 6.6 6.5 6.6 6.7 6.7 6.8 6.9 6.7 6.9 7.5 7.7 7.7 7.7 7.6 7.6 7.5 7.5 7.4 7.3 7.3 7.3 6.8 6.4 6.8 6.8 7.1 7.1 6.7 6.5 6.8 7.3 7.2 6.9 7.4 7.5 7.5 7.6 7.6 7.8
6.4 6.6 6.7 6.6 6.7 6.7 6.7 6.7 6.7 6.7 6.7 6.7 6.7 6.7 7.1 7.4 7.5 7.6 7.6 7.5 7.5 7.3 7.3 7.4 7.2 7.4 7.3 6.6 7.3 7.9 7.8 7.5 7.2 6.9 6.4 6.6 7.2 7.7 7.3 7.0 7.4 7.8 8.0 7.9 7.8
6.2 6.4 6.4 6.5 6.7 6.8 6.8 6.6 6.6 6.7 6.8 6.7 6.5 6.7 6.9 7.1 7.3 7.4 7.3 7.3 7.2 7.1 7.2 7.2 6.8 7.2 7.7 7.0 6.9 6.9 6.9 6.8 7.8 7.3 6.6 7.0 6.4 7.3 7.6 7.5 7.6 7.9 8.0 7.9 7.8
6.3 6.3 6.4 6.3 6.4 6.6 6.8 6.8 6.8 6.5 6.4 6.7 6.6 6.5 6.7 6.9 6.9 7.1 7.2 7.0 7.1 7.1 7.0 6.3 6.9 7.8 7.1 7.2 7.3 7.2 6.6 7.3 7.4 6.9 6.5 6.8 6.4 6.7 7.1 7.4 7.7 7.9 8.1 8.1 7.9
6.1 6.3 6.4 6.3 6.3 6.5 6.6 6.8 6.8 6.7 6.2 6.4 7.0 6.8 6.9 7.0 7.0 7.0 7.3 7.0 6.9 6.7 6.7 6.8 6.9 6.9 7.0 7.2 7.1 7.2 6.9 7.4 6.9 6.9 6.3 6.1 5.9 6.6 6.6 6.7 7.6 7.9 8.0 8.1 8.1
5.8 5.8 6.0 6.1 6.2 6.3 6.5 6.4 6.5 6.5 6.2 5.7 6.3 6.6 7.2 7.5 7.0 7.3 7.1 7.0 6.6 6.5 6.7 5.9 7.1 7.2 7.2 7.2 6.9 5.9 6.9 6.7 7.2 6.0 6.1 6.3 5.6 6.1 6.2 6.6 6.8 7.4 8.0 8.1 7.6
5.6 6.0 6.1 5.7 5.7 6.1 6.1 6.2 6.3 6.4 5.9 6.2 6.1 6.6 6.9 7.2 7.4 7.0 7.2 7.0 6.8 6.6 6.7 6.6 6.6 7.1 6.9 7.3 7.1 6.4 7.2 7.0 6.7 6.3 5.5 5.6 5.2 5.6 6.4 6.2 6.6 7.2 7.8 7.6 7.6
5.4 5.7 6.2 6.1 6.0 6.1 6.3 6.0 5.8 5.7 5.4 6.1 6.5 7.2 7.4 7.5 7.3 6.9 7.3 7.4 7.4 6.7 6.7 7.2 6.7 7.1 7.2 7.5 7.1 6.8 6.7 6.9 6.6 5.9 5.1 6.1 6.2 6.2 6.5 6.3 6.5 7.0 7.7 7.1 7.2
5.3 5.6 6.1 6.3 6.3 6.5 6.3 6.3 5.7 4.9 5.3 5.7 6.2 6.7 7.3 7.5 7.8 7.8 7.5 7.4 7.5 7.0 7.0 7.5 7.5 7.5 7.4 7.1 7.0 6.7 6.4 6.9 6.7 6.2 5.6 6.9 6.7 6.4 6.5 6.9 6.6 7.6 7.4 6.9 7.0
5.5 5.1 5.3 6.0 6.4 6.4 6.4 6.1 5.1 4.9 5.9 6.3 6.6 6.7 6.7 7.0 7.5 7.6 7.4 7.0 7.3 7.4 7.3 7.0 7.0 7.4 7.9 7.9 7.1 6.9 6.1 7.0 6.4 6.6 6.3 6.7 5.8 6.3 6.7 6.5 6.8 7.1 7.1 7.1 7.0
5.5 5.4 5.2 5.3 6.0 5.9 5.9 5.4 4.6 5.9 6.2 6.5 6.3 6.4 6.1 6.8 7.3 7.5 7.5 7.5 7.7 7.9 7.5 7.9 7.3 7.4 7.3 7.2 7.0 5.9 6.1 7.0 6.4 6.2 5.8 6.1 6.2 6.3 6.4 6.6 7.5 7.3 7.0 7.6 7.3
5.8 5.8 5.4 5.4 5.7 5.8 5.7 5.1 5.0 5.7 6.5 6.4 6.5 6.8 6.5 6.7 6.9 7.0 7.0 6.9 7.2 7.6 8.0 7.5 7.5 7.4 7.3 7.2 6.7 7.0 6.7 6.4 5.8 5.9 6.0 6.0 6.4 6.7 7.1 7.5 7.2 7.5 7.1 7.1 7.2
5.9 6.2 6.2 5.9 5.6 5.4 4.8 5.2 4.8 5.5 5.6 5.4 6.0 6.8 6.9 7.3 7.4 7.1 6.6 7.2 7.0 7.3 7.6 7.6 7.1 6.9 6.8 6.1 6.5 6.1 6.0 5.6 6.4 6.5 6.5 5.6 6.0 6.9 6.9 6.9 7.7 7.6 7.1 7.1 7.0
5.9 5.7 5.9 5.9 5.5 5.2 5.2 5.7 5.6 5.0 5.3 5.3 5.9 6.3 6.6 6.6 6.9 7.1 7.0 7.2 7.1 7.1 7.0 7.2 6.5 6.4 6.4 6.7 6.2 6.1 6.0 6.2 6.1 6.2 6.3 6.6 4.3 5.8 6.3 7.0 7.1 7.4 7.4 7.1 6.6
5.6 5.5 5.5 5.4 5.7 4.8 5.0 5.8 5.5 5.5 5.6 5.8 5.3 5.1 5.9 5.8 4.8 5.5 6.1 6.3 6.7 6.5 6.5 6.4 5.7 5.6 5.6 6.0 5.6 5.6 6.2 6.3 6.2 6.5 5.9 6.8 4.4 6.7 6.6 6.4 6.6 6.9 6.8 6.7 6.2
5.7 5.7 5.7 5.4 5.4 5.3 5.0 5.0 5.5 6.4 6.2 5.7 5.9 5.5 5.6 5.5 5.3 5.0 4.8 5.7 6.0 6.1 6.2 5.8 5.1 4.5 5.0 5.8 6.9 6.2 6.1 6.1 5.9 5.7 5.4 5.4 5.8 5.9 6.8 6.9 6.9 6.8 6.8 6.4 6.2
6.2 6.1 6.0 6.3 5.6 5.5 5.4 5.3 5.0 5.0 5.6 5.5 5.6 5.4 5.6 5.5 5.3 5.4 5.6 5.9 6.1 5.7 4.8 5.0 4.3 4.3 4.7 5.1 5.3 5.9 6.2 5.9 5.5 5.7 5.9 5.3 6.1 5.8 6.4 6.6 7.0 6.6 6.6 6.7 6.2
6.1 6.2 6.4 6.7 6.6 6.0 5.5 5.4 5.4 5.7 6.2 5.6 5.9 6.5 6.2 5.7 6.0 5.8 5.8 6.1 6.4 5.7 5.3 4.5 4.7 4.8 4.7 4.7 4.8 4.9 5.3 5.4 5.4 5.6 5.5 5.6 5.5 6.3 7.3 7.0 7.0 7.4 7.7 6.8 6.4
5.8 5.8 6.2 6.2 6.7 6.6 6.5 6.1 5.7 6.0 6.0 6.0 6.1 6.1 6.1 5.8 6.4 6.4 6.2 6.0 6.1 5.9 6.0 5.5 5.0 4.8 4.8 5.3 5.1 5.3 4.9 5.6 6.0 6.5 5.6 5.9 6.6 7.3 6.8 7.2 8.0 7.5 7.0 7.3 6.5
Wind_Speed
17 19 20 21 22 22 21 21 20 19 17 16 14 10 8 8 0 5 7 3 4 5 1 3 4 4 5 3 3 2 5 6 5 5 1 4 9 4 3 8 5 8 6 4 15
17 18 20 20 20 21 21 21 21 20 19 16 16 11 8 8 8 12 8 10 8 7 5 8 5 7 5 3 3 5 5 4 1 4 5 4 9 7 7 11 14 13 10 6 18
16 18 19 21 21 21 21 21 21 21 20 18 16 14 10 6 7 3 8 7 6 8 4 4 4 8 7 5 6 3 5 2 5 7 5 8 8 8 9 16 14 16 16 14 18
15 17 18 19 21 22 22 22 21 21 22 20 16 13 11 5 6 3 6 4 4 5 6 5 6 5 6 7 6 5 10 7 2 3 4 9 6 7 16 19 3 9 13 19 21
14 16 18 20 21 22 23 23 22 20 20 20 15 8 4 6 8 7 7 6 7 4 6 7 8 7 8 5 4 9 9 6 9 6 10 9 13 12 18 18 17 10 6 15 18
13 16 18 20 22 24 25 24 24 22 21 19 13 3 5 11 5 5 5 6 6 7 5 5 4 4 8 5 7 5 8 12 8 12 9 8 13 3 13 13 18 17 16 16 19
13 14 16 19 22 25 27 28 26 25 22 13 7 4 7 13 2 4 6 2 2 4 6 2 2 5 2 6 2 5 9 13 13 12 7 7 11 18 20 8 11 13 16 18 20
12 13 15 18 20 24 27 28 28 24 13 6 4 4 7 2 3 4 7 4 3 2 1 3 2 3 4 1 5 6 7 11 1 10 5 9 18 12 9 10 13 16 16 17 21
11 13 14 16 19 23 27 31 27 9 0 3 4 6 7 4 4 6 5 4 5 4 3 3 3 4 4 7 12 12 12 15 15 15 5 13 15 3 1 8 15 18 18 17 19
14 14 16 17 19 21 28 29 6 5 3 3 2 4 6 1 4 4 3 7 3 6 4 6 6 9 8 10 13 17 17 20 20 9 14 14 21 23 17 19 20 23 22 21 19
15 15 17 19 21 21 12 4 4 5 5 7 2 5 2 3 2 4 4 7 5 7 10 9 9 16 17 19 21 21 22 24 26 11 10 19 22 24 22 19 22 23 21 21 20
13 15 16 20 23 23 7 2 3 3 9 10 14 10 5 2 5 9 7 10 8 15 14 5 17 22 18 13 13 20 22 27 23 6 7 17 22 21 22 26 24 22 22 20 15
12 14 16 20 23 13 1 4 1 1 7 7 7 7 4 9 9 11 14 7 10 15 18 21 19 4 5 13 13 18 21 22 20 10 12 13 16 16 13 18 18 18 21 19 16
14 14 13 22 9 7 1 1 2 2 6 8 7 3 4 3 5 2 7 6 8 12 18 18 19 20 17 20 16 18 12 17 19 11 11 2 16 12 16 19 15 18 21 17 12
15 14 7 6 8 5 7 6 4 3 9 3 4 2 4 6 3 2 2 4 15 10 6 10 7 6 13 14 12 11 2 5 9 13 18 16 14 15 8 11 13 17 19 18 3
19 15 5 5 2 2 5 9 5 6 12 5 6 6 5 6 3 3 4 3 2 7 13 20 3 5 6 2 5 3 4 7 6 8 11 17 18 9 7 5 5 14 15 3 6
21 18 9 3 2 4 1 3 6 11 3 9 8 8 8 9 8 10 8 10 8 6 11 11 22 5 5 6 5 7 5 6 8 9 18 14 12 14 10 12 13 25 20 2 7
24 20 14 13 8 5 3 6 15 8 20 5 4 7 10 13 8 11 7 9 17 12 5 7 11 16 13 15 4 13 9 5 16 15 24 3 13 11 13 11 17 10 8 3 6
21 4 3 8 14 8 8 12 16 15 15 5 2 8 10 9 5 11 13 13 9 21 13 9 17 3 6 3 5 8 7 2 8 3 12 12 20 14 6 10 13 10 5 9 11
2 3 4 10 16 7 7 28 18 16 9 9 19 15 21 21 12 11 13 8 10 17 19 9 16 8 6 2 2 5 2 4 4 8 17 18 18 15 19 21 12 9 10 11 8
3 3 4 21 7 3 5 12 18 20 11 11 19 24 22 21 19 20 14 11 11 8 15 10 10 6 7 10 14 6 6 6 3 7 10 20 7 5 8 7 7 7 7 8 6
3 5 7 11 6 4 5 9 7 19 8 12 12 19 23 22 25 24 25 20 12 8 7 5 2 10 25 7 3 13 18 18 8 12 10 13 28 4 4 1 6 4 6 3 3
4 6 5 7 8 9 7 16 12 13 7 6 11 15 16 17 14 20 25 19 14 11 10 8 1 5 16 10 4 8 13 13 18 14 29 13 27 2 10 9 6 7 10 10 13
4 4 3 6 10 19 16 21 22 21 23 20 11 10 19 17 18 9 19 13 11 13 10 11 8 15 21 17 4 11 16 18 20 17 23 26 29 38 33 27 25 23 25 22 19
3 4 6 6 12 19 19 15 27 27 23 16 13 25 20 14 20 22 24 30 21 10 1 6 19 24 32 36 33 24 19 17 28 26 20 31 25 33 32 27 30 26 29 24 26
3 4 3 5 13 21 25 20 27 30 27 23 23 24 27 26 24 26 22 19 19 4 11 7 13 21 27 31 34 28 25 35 31 31 32 29 32 31 36 35 32 34 30 25 27
3 2 1 3 5 8 16 29 33 28 31 29 29 23 25 28 32 32 26 22 7 7 12 6 6 9 20 26 24 19 36 37 36 38 32 28 35 36 35 32 31 31 22 23 20
Wind_Direction
15 12 9 8 4 1 359 356 354 353 355 352 348 340 324 311 221 198 241 136 141 123 174 160 210 201 220 217 239 260 250 267 280 264 303 153 212 175 358 237 204 199 259 92 146
10 5 5 3 360 356 352 350 346 344 345 346 344 334 320 304 260 255 134 143 147 166 190 202 217 188 214 233 216 239 259 288 307 259 257 214 236 212 214 219 229 231 213 170 158
4 1 357 356 353 350 348 344 339 336 336 338 338 330 315 298 276 250 130 148 163 185 234 226 254 205 245 234 201 200 254 347 254 243 247 253 236 219 230 245 230 237 221 187 182
358 355 352 349 346 344 342 339 335 331 328 328 332 326 316 243 272 103 125 140 178 195 198 190 194 210 241 223 200 258 251 247 291 238 238 240 264 235 230 242 286 259 251 177 196
350 349 346 343 339 338 337 333 329 326 320 319 318 316 281 238 254 138 144 147 154 176 231 229 235 252 250 235 221 248 268 252 253 243 246 255 248 254 259 248 255 224 237 198 207
342 342 341 337 334 333 330 328 324 321 315 312 302 287 240 255 99 137 154 150 205 205 202 222 290 303 288 261 235 353 280 268 257 240 233 241 260 246 258 247 243 232 228 227 217
328 333 334 333 330 330 326 322 320 317 312 306 276 236 240 252 107 140 160 181 184 234 222 207 213 233 359 262 245 273 276 270 242 231 234 218 257 235 253 227 238 236 235 232 227
319 324 327 328 328 327 322 317 314 310 307 298 205 232 259 87 152 177 169 138 146 133 200 149 211 249 238 42 237 257 252 273 26 180 191 198 268 253 258 201 236 248 243 235 232
314 319 323 327 327 324 320 313 308 299 230 173 206 238 261 135 190 173 206 205 143 125 94 144 212 256 194 243 267 218 267 272 276 188 167 208 272 273 183 245 264 265 261 252 236
309 316 321 323 323 323 321 305 270 271 206 203 265 234 191 221 130 154 149 177 176 157 172 208 222 238 219 229 249 276 284 287 276 203 213 231 251 270 271 275 269 268 266 268 255
307 315 320 320 320 322 337 332 248 210 206 233 193 267 186 101 179 192 167 168 177 213 217 199 224 231 239 235 252 275 282 279 274 272 217 242 255 266 279 277 274 271 273 266 256
305 311 316 317 317 313 286 316 63 348 294 240 255 264 235 188 239 196 176 190 193 221 218 207 236 252 274 280 271 268 267 271 276 291 211 267 268 269 272 269 270 273 273 268 268
282 302 315 317 315 300 332 119 154 304 260 235 220 239 234 191 237 219 183 203 216 232 226 241 258 96 271 256 251 249 249 260 263 280 224 274 272 258 247 253 262 269 264 270 262
266 281 314 326 298 339 266 37 165 177 264 225 199 172 151 192 250 97 216 224 210 245 240 257 266 265 263 254 254 264 267 256 266 277 265 154 286 276 285 272 252 265 275 270 254
250 262 303 15 308 311 358 320 283 241 276 106 159 73 143 206 80 155 164 205 237 212 191 230 225 225 238 250 231 234 357 251 257 259 277 265 270 275 229 264 249 255 261 280 179
246 243 226 233 228 293 318 310 277 237 241 183 150 181 180 199 181 129 186 236 335 245 240 258 96 232 235 112 241 72 267 239 232 255 253 258 242 277 229 206 241 259 260 215 162
240 234 199 228 291 136 125 262 256 236 123 187 200 176 218 197 201 191 173 188 191 184 220 226 230 204 187 212 176 204 238 280 254 234 262 271 264 264 277 245 241 262 271 125 166
238 217 212 223 196 172 180 196 244 256 230 69 153 184 205 179 223 198 192 228 228 244 275 249 252 199 198 222 276 193 221 235 281 274 284 294 266 256 256 237 242 260 267 171 195
242 210 211 214 199 188 204 213 236 240 255 261 210 237 221 218 227 197 215 228 225 198 211 229 253 124 191 164 196 167 203 308 280 258 279 260 261 254 159 206 238 245 231 223 227
190 215 211 188 199 173 204 234 241 224 250 242 233 217 242 230 195 195 219 218 229 204 227 254 273 180 128 172 236 234 74 198 209 280 270 270 286 277 271 254 228 241 234 252 208
231 234 198 149 124 196 235 240 258 257 252 242 252 256 253 251 239 230 236 238 198 205 219 235 227 241 145 201 218 190 218 218 293 245 263 285 269 89 131 157 181 219 236 247 185
227 226 156 146 178 177 223 233 261 271 295 260 268 263 265 267 259 254 249 250 193 152 195 212 292 248 250 262 244 256 238 216 220 229 235 260 274 13 263 272 130 193 216 195 228
256 228 193 180 216 207 225 232 236 250 227 209 242 247 255 260 271 265 271 270 262 186 187 166 223 269 279 242 168 217 220 238 237 252 250 241 261 319 283 213 212 193 228 228 236
273 231 180 217 228 229 218 233 236 234 242 228 221 246 261 254 256 261 263 266 258 252 236 160 209 231 238 240 211 207 221 223 223 236 250 241 264 272 266 274 276 279 280 276 276
232 256 188 198 226 227 223 226 240 243 226 220 231 221 221 232 243 246 253 260 265 251 136 217 228 226 237 255 262 268 270 237 230 233 240 256 244 258 276 273 277 285 282 289 287
283 302 330 298 253 218 225 223 233 242 235 227 227 228 223 225 223 249 228 239 230 177 244 210 242 237 244 248 253 254 252 253 261 257 255 252 266 259 266 275 276 275 285 286 285
9 1 323 270 299 266 242 238 235 235 245 245 246 234 235 226 228 241 252 253 145 202 210 199 221 230 245 246 254 251 239 247 251 254 247 248 253 265 266 259 265 276 285 278 286